Flag for Canada Weather past 2 weeks in Fort Liard, Northwest Territories, Canada

55 °F

Broken clouds.

Feels Like: 52 °F
Forecast: 28 / 56 °F
Wind: 14 mph from West

Location: Fort Nelson

Current Time: Oct 4, 2015 at 5:44:09 PM

Latest Report: Oct 4, 2015 at 5:00 PM

Visibility: 30 mi

Pressure: 30.00 "Hg

Humidity: 26%

Dew point: 21 °F

Location of Fort LiardLocation

Historic Weather in Fort Liard — Graph


Fort Liard temperature yesterday

Maximum temperature yesterday: 48 °F (at 3:00 PM)
Minimum temperature yesterday: 27 °F (at 12:00 AM)
Average temperature yesterday: 36 °F

Past Weeks' High & Low Weather Summary

High72 °F (Sep 29, 5:00 PM)100% (Sep 20, 9:00 PM)30.63 "Hg (Sep 20, 9:00 PM)
Low23 °F (Oct 4, 8:00 AM)23% (Sep 19, 4:00 PM)29.36 "Hg (Sep 19, 4:00 PM)
Average42 °F74%29.95 "Hg
* Reported Sep 19 4:00 PM — Oct 4 4:00 PM, Fort Liard, Weather by CustomWeather, © 2015

Note: Actual official high and low records may vary slightly from our data, if they occured in-between our weather recording intervals... More about our weather records


Fort Liard weather history for previous 24 hours

Time TempWeatherWind HumidityBarometerVisibility
4:00 PM
Sun, Oct 4
54 °FPartly sunny.3 mph35%29.99 "Hg30 mi
3:00 PM52 °FScattered clouds.5 mph38%30.01 "Hg30 mi
2:00 PM46 °FPassing clouds.5 mph46%30.02 "Hg30 mi
1:00 PM41 °FPassing clouds.6 mph57%30.03 "Hg30 mi
12:00 PM37 °FScattered clouds.7 mph65%30.06 "Hg30 mi
11:00 AM32 °FScattered clouds.5 mph80%30.09 "Hg30 mi
10:00 AM28 °FPartly sunny.3 mph86%30.10 "Hg30 mi
9:00 AM25 °FPassing clouds.3 mph93%30.11 "Hg30 mi
8:00 AM23 °FPassing clouds.3 mph93%30.12 "Hg15 mi
7:00 AM27 °FPassing clouds.No wind86%30.12 "Hg15 mi
6:00 AM25 °FPassing clouds.2 mph93%30.14 "Hg15 mi
5:00 AM25 °FPassing clouds.3 mph86%30.15 "Hg15 mi
4:00 AM27 °FPassing clouds.3 mph86%30.17 "Hg15 mi
3:00 AM28 °FPassing clouds.No wind80%30.18 "Hg15 mi
2:00 AM28 °FPassing clouds.2 mph80%30.20 "Hg15 mi
1:00 AM36 °FPassing clouds.3 mph60%30.23 "Hg15 mi
12:00 AM37 °FPassing clouds.3 mph60%30.26 "Hg15 mi
11:00 PM
Sat, Oct 3
34 °FPassing clouds.3 mph70%30.30 "Hg15 mi
10:00 PM39 °FPassing clouds.2 mph56%30.32 "Hg15 mi
9:00 PM39 °FPassing clouds.No wind56%30.36 "Hg15 mi
8:00 PM41 °FPartly sunny.No wind57%30.37 "Hg15 mi
7:00 PM45 °FPartly sunny.No wind42%30.39 "Hg30 mi
6:00 PM48 °FPartly sunny.3 mph32%30.40 "Hg30 mi
5:00 PM48 °FScattered clouds.7 mph32%30.42 "Hg30 mi
Weather by CustomWeather, © 2015

See weather overviewHow to use our weather pages